FW6560 Weather Reports


Display with metric or nautical units.
time (UTC)temp
F
wind
direction
speed
MPH
gust
MPH
rain 1hr
in
rain 24hr
in
rain mn
in
humidity
%
barometer
mb
20260509102317 53 203 0.0 2.0 0.00 0.00 0.00 74 1021.5
20260509101806 53 248 0.0 2.0 0.00 0.00 0.00 76 1021.3
20260509101256 53 248 0.0 2.0 0.00 0.00 0.00 82 1021.0
20260509100746 52 248 0.0 0.0 0.00 0.00 0.00 85 1021.0
20260509100236 52 225 0.0 0.0 0.00 0.00 0.00 84 1020.9
20260509094706 51 203 0.0 0.0 0.00 0.00 0.00 84 1020.1
20260509093135 51 203 0.0 0.0 0.00 0.00 0.00 83 1019.8
20260509092625 52 225 0.0 0.0 0.00 0.00 0.00 83 1019.7
20260509091605 52 225 0.0 0.0 0.00 0.00 0.00 82 1019.3
20260509091055 52 225 0.0 0.0 0.00 0.00 0.00 81 1019.2
20260509090034 52 180 0.0 0.0 0.00 0.00 0.00 79 1019.0
20260509085524 52 248 0.0 0.0 0.00 0.00 0.00 78 1019.0
20260509085024 52 225 0.0 2.0 0.00 0.00 0.00 77 1019.1
20260509083955 52 248 0.0 0.0 0.00 0.00 0.00 76 1018.8
20260509082424 52 225 0.0 0.0 0.00 0.00 0.00 75 1018.3
20260509081913 51 203 0.0 0.0 0.00 0.00 0.00 75 1018.3
20260509080853 52 225 0.0 0.0 0.00 0.00 0.00 75 1018.3
20260509080343 52 225 0.0 0.0 0.00 0.00 0.00 75 1018.0
20260509075833 52 180 0.0 0.0 0.00 0.00 0.00 74 1018.2
20260509075324 52 225 0.0 0.0 0.00 0.00 0.00 74 1017.8
20260509074813 52 225 0.0 0.0 0.00 0.00 0.00 76 1017.8
20260509074304 52 225 0.0 0.0 0.00 0.00 0.00 77 1017.9
20260509073752 51 225 0.0 0.0 0.00 0.00 0.00 78 1018.0
20260509072733 51 225 0.0 0.0 0.00 0.00 0.00 82 1018.0
20260509072223 50 225 0.0 0.0 0.00 0.00 0.00 84 1017.8
20260509071713 50 225 0.0 0.0 0.00 0.00 0.00 85 1017.8
20260509071203 49 225 0.0 0.0 0.00 0.00 0.00 88 1017.8
20260509070653 49 248 0.0 0.0 0.00 0.00 0.00 89 1017.7
20260509070142 49 248 0.0 0.0 0.00 0.00 0.00 92 1017.6
20260509065632 48 248 0.0 0.0 0.00 0.00 0.00 94 1017.8
20260509065122 48 270 0.0 0.0 0.00 0.00 0.00 96 1017.6
20260509064612 48 270 0.0 0.0 0.00 0.00 0.00 97 1017.7
20260509064102 48 270 0.0 0.0 0.00 0.00 0.00 97 1017.5
20260509063552 47 270 0.0 0.0 0.00 0.00 0.00 97 1017.7
20260509062531 47 270 0.0 0.0 0.00 0.00 0.00 96 1017.8
20260509062025 47 270 0.0 0.0 0.00 0.00 0.00 95 1017.6
20260509061001 48 270 0.0 0.0 0.00 0.00 0.00 94 1017.6
20260509055940 48 270 0.0 0.0 0.00 0.00 0.00 94 1017.3
20260509054411 47 315 0.0 0.0 0.00 0.00 0.00 98 1017.3
20260509052840 47 315 0.0 0.0 0.00 0.00 0.00 98 1017.5
20260509052330 47 315 0.0 0.0 0.00 0.00 0.00 97 1017.6
20260509051820 47 315 0.0 0.0 0.00 0.00 0.00 97 1017.5
20260509051309 47 315 0.0 0.0 0.00 0.00 0.00 97 1017.8
20260509050757 47 315 0.0 0.0 0.00 0.00 0.00 97 1017.5
20260509050201 47 315 0.0 0.0 0.00 0.00 0.00 97 1017.3
20260509045942 47 315 0.0 0.0 0.00 0.00 0.00 98 1017.3
20260509045432 47 315 0.0 0.0 0.00 0.00 0.00 98 1017.6
20260509044412 47 315 0.0 0.0 0.00 0.00 0.00 98 1017.4
20260509043901 47 315 0.0 0.0 0.00 0.00 0.00 98 1017.3
20260509043352 47 315 0.0 0.0 0.00 0.00 0.00 97 1017.4
20260509042331 47 315 0.0 0.0 0.00 0.00 0.00 97 1017.4
20260509041821 47 315 0.0 0.0 0.00 0.00 0.00 97 1017.8
20260509040801 48 315 0.0 0.0 0.00 0.00 0.00 97 1017.8
20260509040250 49 315 0.0 0.0 0.00 0.00 0.00 97 1017.5
20260509035741 49 315 0.0 0.0 0.00 0.00 0.00 96 1017.1
20260509035230 49 315 0.0 0.0 0.00 0.00 0.00 96 1017.0
20260509034720 49 315 0.0 0.0 0.00 0.00 0.00 97 1017.3
20260509034211 49 315 0.0 0.0 0.00 0.00 0.00 97 1017.6
20260509033700 48 315 0.0 0.0 0.00 0.00 0.00 96 1017.9
20260509033150 49 315 0.0 0.0 0.00 0.00 0.00 96 1017.8
20260509032640 48 315 0.0 0.0 0.00 0.00 0.00 96 1017.9
20260509032131 49 315 0.0 0.0 0.00 0.00 0.00 96 1017.7
20260509031620 49 315 0.0 0.0 0.00 0.00 0.00 96 1017.7
20260509031109 48 315 0.0 0.0 0.00 0.00 0.00 96 1017.5
20260509030049 49 315 0.0 0.0 0.00 0.00 0.00 95 1017.6
20260509025029 49 248 0.0 0.0 0.00 0.00 0.00 95 1017.3
20260509024518 49 248 0.0 0.0 0.00 0.00 0.00 95 1017.3
20260509022949 49 248 0.0 0.0 0.00 0.00 0.00 93 1017.1
20260509022438 50 248 0.0 0.0 0.00 0.00 0.00 93 1017.1
20260509021928 51 248 0.0 0.0 0.00 0.00 0.00 92 1017.0
20260509021419 51 248 0.0 0.0 0.00 0.00 0.00 91 1016.9
20260509020908 51 248 0.0 0.0 0.00 0.00 0.00 89 1017.0
20260509020359 52 248 0.0 0.0 0.00 0.00 0.00 88 1016.7
20260509015338 51 248 0.0 0.0 0.00 0.00 0.00 89 1017.0
20260509014827 51 248 0.0 0.0 0.00 0.00 0.00 91 1017.1
20260509014318 51 248 0.0 0.0 0.00 0.00 0.00 93 1016.7
20260509013807 50 248 0.0 0.0 0.00 0.00 0.00 94 1016.9
20260509013258 50 248 0.0 0.0 0.00 0.00 0.00 95 1016.9
20260509012747 50 248 0.0 0.0 0.00 0.00 0.00 95 1016.7
20260509012237 50 248 0.0 0.0 0.00 0.00 0.00 95 1016.7
20260509011216 51 248 0.0 0.0 0.00 0.00 0.00 94 1016.5
20260509010157 51 248 0.0 0.0 0.00 0.00 0.00 93 1016.1
20260509005647 51 248 0.0 0.0 0.00 0.00 0.00 94 1016.1
20260509005136 49 248 0.0 0.0 0.00 0.00 0.00 95 1016.1
20260509004626 50 248 0.0 0.0 0.00 0.00 0.00 95 1016.2
20260509004122 49 248 0.0 0.0 0.00 0.00 0.00 95 1015.8
20260509003606 50 248 0.0 0.0 0.00 0.00 0.00 94 1015.7
20260509003055 50 248 0.0 0.0 0.00 0.00 0.00 94 1015.6
20260509002546 50 248 0.0 0.0 0.00 0.00 0.00 95 1015.2
20260509002036 50 248 0.0 0.0 0.00 0.00 0.00 94 1015.6
20260509001525 50 248 0.0 0.0 0.00 0.00 0.00 94 1015.5
20260509001025 50 248 0.0 0.0 0.00 0.00 0.00 94 1015.2
20260509000505 50 248 0.0 0.0 0.00 0.00 0.00 94 1015.1
20260508235955 50 248 0.0 0.0 0.00 0.00 0.00 93 1015.1
20260508235445 50 248 0.0 0.0 0.00 0.00 0.00 93 1015.3
20260508234936 50 248 0.0 0.0 0.00 0.00 0.00 93 1015.2
20260508234425 50 248 0.0 0.0 0.00 0.00 0.00 93 1015.2
20260508233916 51 248 0.0 0.0 0.00 0.00 0.00 93 1015.0
20260508232855 51 248 0.0 0.0 0.00 0.00 0.00 92 1015.0
20260508232344 51 248 0.0 0.0 0.00 0.00 0.00 91 1015.1
20260508231834 51 248 0.0 0.0 0.00 0.00 0.00 91 1015.0
20260508231325 51 248 0.0 0.0 0.00 0.00 0.00 90 1014.8
20260508230814 52 248 0.0 0.0 0.00 0.00 0.00 90 1014.9
20260508230304 52 248 0.0 0.0 0.00 0.00 0.00 90 1014.8
20260508225754 52 248 0.0 0.0 0.00 0.00 0.00 89 1014.8
20260508225244 52 248 0.0 0.0 0.00 0.00 0.00 89 1014.7
20260508224734 52 248 0.0 0.0 0.00 0.00 0.00 87 1014.7
20260508224223 52 248 0.0 0.0 0.00 0.00 0.00 87 1014.3
20260508223203 53 248 0.0 0.0 0.00 0.00 0.00 85 1014.3
20260508222653 53 248 0.0 0.0 0.00 0.00 0.00 83 1014.0
20260508222143 54 248 0.0 0.0 0.00 0.00 0.00 82 1014.0
20260508221633 54 248 0.0 0.0 0.00 0.00 0.00 80 1014.2
20260508220613 56 248 0.0 0.0 0.00 0.00 0.00 76 1013.9
20260508215553 57 225 0.0 0.0 0.00 0.00 0.00 74 1013.8
20260508215043 57 225 0.0 0.0 0.00 0.00 0.00 68 1013.9
20260508214535 58 225 0.0 0.0 0.00 0.00 0.00 66 1013.8
20260508213513 59 248 0.0 0.0 0.00 0.00 0.00 65 1014.1
20260508213003 59 248 0.0 2.0 0.00 0.00 0.00 63 1014.2
20260508212452 60 248 0.0 2.0 0.00 0.00 0.00 62 1014.2
20260508211941 60 270 0.0 2.0 0.00 0.00 0.00 59 1014.3
20260508211432 61 270 0.0 2.0 0.00 0.00 0.00 58 1014.3
20260508210922 61 270 0.0 2.0 0.00 0.00 0.00 56 1014.3
20260508210411 61 293 0.0 2.0 0.00 0.00 0.00 54 1014.1
20260508205901 62 270 0.0 2.0 0.00 0.00 0.00 53 1013.9
20260508205351 62 293 0.0 2.0 0.00 0.00 0.00 52 1014.1
20260508204841 63 293 0.0 2.0 0.00 0.00 0.00 50 1014.0
20260508204330 64 270 0.0 2.0 0.00 0.00 0.00 51 1013.9
20260508203821 64 270 0.0 2.0 0.00 0.00 0.00 50 1013.9
20260508203311 64 293 0.0 2.0 0.00 0.00 0.00 49 1013.8
20260508202800 64 293 0.0 2.0 0.00 0.00 0.00 46 1013.7
20260508202251 64 248 0.0 2.0 0.00 0.00 0.00 47 1013.8
20260508201741 65 248 0.0 2.0 0.00 0.00 0.00 45 1014.1
20260508201231 65 270 0.0 2.0 0.00 0.00 0.00 45 1014.0
20260508200720 65 225 0.0 2.0 0.00 0.00 0.00 44 1013.9
20260508200210 65 248 0.0 2.0 0.00 0.00 0.00 43 1013.8
20260508195701 65 293 0.0 2.0 0.00 0.00 0.00 43 1013.7
20260508195149 65 248 0.0 2.0 0.00 0.00 0.00 43 1013.8
20260508194639 65 248 0.0 4.0 0.00 0.00 0.00 43 1013.9
20260508194130 65 225 0.0 6.0 0.00 0.00 0.00 44 1013.7
20260508193619 66 248 1.0 6.0 0.00 0.00 0.00 44 1013.9
20260508193109 65 248 0.0 2.0 0.00 0.00 0.00 41 1013.9
20260508192600 65 248 0.0 2.0 0.00 0.00 0.00 42 1014.0
20260508192049 66 225 0.0 11.0 0.00 0.00 0.00 44 1014.1
20260508191539 66 225 0.0 11.0 0.00 0.00 0.00 43 1014.2
20260508191028 66 270 1.0 9.0 0.00 0.00 0.00 44 1014.1
20260508185458 65 293 5.0 11.0 0.00 0.00 0.00 44 1014.1
20260508184949 65 270 5.0 11.0 0.00 0.00 0.00 45 1014.4
20260508184438 66 270 1.0 2.0 0.00 0.00 0.00 44 1014.6
20260508183928 66 293 0.0 2.0 0.00 0.00 0.00 44 1014.5
20260508183419 67 270 0.0 2.0 0.00 0.00 0.00 44 1014.5
20260508182908 66 248 0.0 2.0 0.00 0.00 0.00 44 1014.5
20260508182359 66 225 0.0 11.0 0.00 0.00 0.00 44 1014.5
20260508181849 66 225 1.0 11.0 0.00 0.00 0.00 44 1014.6
20260508180828 66 225 0.0 11.0 0.00 0.00 0.00 43 1014.6
20260508174747 65 270 2.0 14.0 0.00 0.00 0.00 45 1014.5
20260508173727 65 293 0.0 2.0 0.00 0.00 0.00 43 1015.0
20260508173216 65 248 0.0 2.0 0.00 0.00 0.00 43 1014.9
20260508172157 65 270 1.0 13.0 0.00 0.00 0.00 45 1015.1
20260508171647 65 225 4.0 13.0 0.00 0.00 0.00 44 1015.6
20260508171136 65 293 1.0 18.0 0.00 0.00 0.00 45 1015.5
20260508170627 65 180 0.0 18.0 0.00 0.00 0.00 42 1015.7
20260508165606 64 315 11.0 14.0 0.00 0.00 0.00 42 1015.6
20260508164546 65 293 7.0 14.0 0.00 0.00 0.00 40 1015.6
20260508164036 64 270 10.0 14.0 0.00 0.00 0.00 41 1015.5
20260508163525 65 248 8.0 11.0 0.00 0.00 0.00 41 1015.9
20260508163026 65 270 1.0 11.0 0.00 0.00 0.00 41 1015.9
20260508162505 65 270 5.0 13.0 0.00 0.00 0.00 42 1016.1
20260508161956 65 315 1.0 14.0 0.00 0.00 0.00 41 1016.0
20260508160935 64 270 8.0 13.0 0.00 0.00 0.00 43 1016.3
20260508160424 64 270 3.0 14.0 0.00 0.00 0.00 45 1016.3
20260508155918 64 270 8.0 14.0 0.00 0.00 0.00 41 1016.4
20260508154344 64 270 0.0 14.0 0.00 0.00 0.00 50 1016.6
20260508153834 64 270 9.0 14.0 0.00 0.00 0.00 47 1016.9
20260508152815 64 225 1.0 13.0 0.00 0.00 0.00 50 1017.1
20260508152306 64 248 1.0 13.0 0.00 0.00 0.00 48 1016.9
20260508151754 64 248 2.0 18.0 0.00 0.00 0.00 48 1016.9
20260508151245 64 248 1.0 18.0 0.00 0.00 0.00 49 1017.1
20260508150733 64 270 8.0 13.0 0.00 0.00 0.00 46 1017.3
20260508150224 63 293 1.0 13.0 0.00 0.00 0.00 48 1017.0
20260508145714 63 270 7.0 11.0 0.00 0.00 0.00 47 1017.2
20260508145203 63 293 1.0 14.0 0.00 0.00 0.00 51 1017.1
20260508144653 63 248 1.0 14.0 0.00 0.00 0.00 51 1017.4
20260508144145 63 248 4.0 11.0 0.00 0.00 0.00 50 1017.2
20260508143633 63 248 1.0 11.0 0.00 0.00 0.00 54 1017.4
20260508143123 63 270 1.0 13.0 0.00 0.00 0.00 56 1017.3
20260508142613 62 225 7.0 13.0 0.00 0.00 0.00 56 1017.3
20260508142102 62 270 1.0 4.0 0.00 0.00 0.00 59 1017.4
20260508141552 62 248 1.0 9.0 0.00 0.00 0.00 59 1017.7
20260508141042 62 293 1.0 16.0 0.00 0.00 0.00 62 1017.0
20260508140532 61 270 7.0 16.0 0.00 0.00 0.00 64 1017.3
20260508140025 61 248 6.0 13.0 0.00 0.00 0.00 64 1017.5
20260508135511 61 270 8.0 11.0 0.00 0.00 0.00 63 1017.4
20260508135001 61 225 1.0 11.0 0.00 0.00 0.00 65 1017.3
20260508134452 61 225 4.0 9.0 0.00 0.00 0.00 68 1017.4
20260508133942 61 248 0.0 4.0 0.00 0.00 0.00 68 1017.7
20260508133431 60 225 0.0 9.0 0.00 0.00 0.00 69 1017.4
20260508132922 60 248 1.0 11.0 0.00 0.00 0.00 68 1017.6
20260508131901 60 270 0.0 9.0 0.00 0.00 0.00 75 1017.4
20260508131352 59 248 1.0 11.0 0.00 0.00 0.00 74 1017.6
20260508130841 59 248 7.0 11.0 0.00 0.00 0.00 73 1017.6
20260508130331 59 248 4.0 8.0 0.00 0.00 0.00 76 1017.4
20260508125820 58 248 0.0 2.0 0.00 0.00 0.00 75 1017.5
20260508125311 58 293 0.0 13.0 0.00 0.00 0.00 76 1017.3
20260508124800 58 270 1.0 13.0 0.00 0.00 0.00 77 1017.2
20260508124250 58 270 8.0 13.0 0.00 0.00 0.00 77 1017.3
20260508123741 58 270 8.0 13.0 0.00 0.00 0.00 77 1017.5
20260508123231 57 225 8.0 11.0 0.00 0.00 0.00 78 1017.3
20260508122720 57 225 0.0 2.0 0.00 0.00 0.00 80 1017.2
20260508121700 57 270 0.0 2.0 0.00 0.00 0.00 83 1017.3
20260508121150 56 225 0.0 2.0 0.00 0.00 0.00 83 1017.0
20260508120640 56 248 0.0 2.0 0.00 0.00 0.00 84 1017.3
20260508120129 56 248 0.0 2.0 0.00 0.00 0.00 84 1017.1
20260508115110 55 248 0.0 9.0 0.00 0.00 0.00 87 1016.9
20260508114559 55 248 0.0 9.0 0.00 0.00 0.00 87 1017.0
20260508113538 55 293 4.0 11.0 0.00 0.00 0.00 87 1016.5
20260508113029 54 270 0.0 2.0 0.00 0.00 0.00 88 1017.0
20260508112024 54 293 0.0 2.0 0.00 0.00 0.00 90 1016.7
20260508111458 53 225 0.0 2.0 0.00 0.00 0.00 90 1016.7
20260508110948 53 248 0.0 2.0 0.00 0.00 0.00 90 1016.6
20260508110439 53 225 0.0 2.0 0.00 0.00 0.00 91 1016.4
20260508105418 53 293 0.0 2.0 0.00 0.00 0.00 92 1016.4
20260508104908 52 248 0.0 2.0 0.00 0.00 0.00 93 1016.2
20260508103848 52 293 0.0 2.0 0.00 0.00 0.00 93 1016.0
20260508103337 52 248 0.0 2.0 0.00 0.00 0.00 94 1015.8
20260508102827 52 248 0.0 2.0 0.00 0.00 0.00 94 1015.8